This demonstration page uses our WeatherBlox Daily Observations layout. Learn more.

Left ArrowRight Arrow

39.51506, -84.39828

Hourly Observations for August 24, 2016

Temp ( °F °C ) Dew Point ( °F °C ) Humidity (%) Winds ( mph kmh ) Pressure ( in mb ) Visibility ( mi km ) Precip ( " mm )
12:15 am 00:15 Clear 67 19.5 61 16 80 80 N N/A 30.18 1022 10 16 N/A
12:35 am 00:35 Clear 64 18 59 14.8 82 82 N N/A 30.18 1022 10 16 N/A
12:55 am 00:55 Clear 64 18 59 15 83 83 N N/A 30.18 1022 10 16 N/A
1:15 am 01:15 Clear 64 18 59 15 83 83 N N/A 30.18 1022 10 16 N/A
1:35 am 01:35 Clear 66 19.1 61 15.9 82 82 N N/A 30.18 1022 10 16 N/A
1:55 am 01:55 Clear 65 18.3 59 15.2 82 82 N N/A 30.18 1022 10 16 N/A
2:15 am 02:15 Clear 67 19.4 61 16.2 82 82 N N/A 30.18 1022 10 16 N/A
2:35 am 02:35 Clear 65 18.6 60 15.5 82 82 N N/A 30.18 1022 10 16 N/A
2:55 am 02:55 Clear 65 18.6 60 15.5 82 82 N N/A 30.18 1022 10 16 N/A
3:15 am 03:15 Clear 64 18 59 15 83 83 N N/A 30.18 1022 10 16 N/A
3:35 am 03:35 Clear 65 18.1 59 15.1 83 83 N N/A 30.15 1021 10 16 N/A
3:55 am 03:55 Clear 67 19.5 61 16.3 82 82 N N/A 30.18 1022 10 16 N/A
4:15 am 04:15 Clear 67 19.5 62 16.5 83 83 N N/A 30.18 1022 10 16 N/A
4:35 am 04:35 Clear 67 19.5 62 16.5 83 83 N N/A 30.18 1022 10 16 N/A
4:55 am 04:55 Clear 65 18.4 60 15.7 84 84 N N/A 30.18 1022 10 16 N/A
5:15 am 05:15 Clear 64 18 60 15.5 85 85 N N/A 30.18 1022 10 16 N/A
5:35 am 05:35 Clear 64 18 60 15.5 85 85 N N/A 30.18 1022 10 16 N/A
5:55 am 05:55 Clear 64 18 60 15.5 85 85 N N/A 30.18 1022 10 16 N/A
6:15 am 06:15 Clear 64 18 60 15.5 85 85 N N/A 30.18 1022 10 16 N/A
6:35 am 06:35 Clear 64 18 60 15.3 84 84 N N/A 30.18 1022 10 16 N/A
6:55 am 06:55 Clear 66 19.1 61 16.2 83 83 N N/A 30.18 1022 10 16 N/A
7:15 am 07:15 Sunny 67 19.4 62 16.5 83 83 N N/A 30.18 1022 10 16 N/A
7:35 am 07:35 Partly Cloudy 67 19.5 62 16.5 83 83 N N/A 30.18 1022 10 16 N/A
7:55 am 07:55 Partly Cloudy 69 20.8 65 18.1 85 85 N N/A 30.18 1022 10 16 N/A
8:15 am 08:15 Sunny 69 20.8 63 17.1 79 79 N N/A 30.18 1022 10 16 N/A
8:35 am 08:35 Sunny 69 20.8 61 16.2 75 75 SSE 3 6 30.18 1022 10 16 N/A
8:55 am 08:55 Sunny 73 22.8 65 18.2 75 75 SE 3 6 30.18 1022 10 16 N/A
9:15 am 09:15 Sunny 74 23.6 64 17.6 69 69 S 5 7 30.18 1022 10 16 N/A
9:35 am 09:35 Partly Cloudy 74 23.6 63 17.1 67 67 SSE 5 7 30.18 1022 10 16 N/A
9:55 am 09:55 Sunny 76 24.4 62 16.9 63 63 S 7 11 30.18 1022 10 16 N/A
10:15 am 10:15 Partly Cloudy 77 24.8 63 17.1 62 62 S 7 11 30.18 1022 10 16 N/A
10:35 am 10:35 Sunny 77 25.1 64 17.7 64 64 S 7 11 30.18 1022 10 16 N/A
10:55 am 10:55 Sunny 77 25.1 64 17.8 64 64 S 7 11 30.15 1021 10 16 N/A
11:15 am 11:15 Partly Cloudy 77 25.1 64 17.5 63 63 S 6 9 30.15 1021 10 16 N/A
11:35 am 11:35 Partly Cloudy 79 26.2 65 18.4 62 62 S 8 13 30.15 1021 10 16 N/A
11:55 am 11:55 Partly Cloudy 80 26.5 66 18.9 63 63 S 7 11 30.15 1021 10 16 N/A
12:15 pm 12:15 Sunny 80 26.5 65 18.6 62 62 S 8 13 30.15 1021 10 16 N/A
12:35 pm 12:35 Sunny 81 27.2 67 19.3 62 62 S 8 13 30.15 1021 10 16 N/A
12:55 pm 12:55 Partly Cloudy 82 28 67 19.7 61 61 SSW 10 17 30.12 1020 10 16 N/A
1:15 pm 13:15 Partly Cloudy 83 28.4 68 19.8 60 60 S 10 17 30.12 1020 10 16 N/A
1:35 pm 13:35 Partly Cloudy 83 28.4 67 19.5 59 59 S 7 11 30.12 1020 10 16 N/A
1:55 pm 13:55 Partly Cloudy 83 28.6 68 19.9 59 59 S 9 15 30.09 1019 10 16 N/A
2:15 pm 14:15 Partly Cloudy 83 28.6 68 20.1 60 60 SW 8 13 30.09 1019 10 16 N/A
2:35 pm 14:35 Partly Cloudy 83 28.6 67 19.6 58 58 SW 10 17 30.09 1019 10 16 N/A
2:55 pm 14:55 Mostly Cloudy 85 29.2 68 20.1 58 58 S 10 17 30.06 1018 10 16 N/A
3:15 pm 15:15 Mostly Cloudy 87 30.7 70 20.9 56 56 S 9 15 30.03 1017 10 16 N/A
3:35 pm 15:35 Mostly Cloudy 85 29.5 68 19.8 56 56 S 12 19 30.03 1017 10 16 N/A
3:55 pm 15:55 Mostly Cloudy 87 30.5 69 20.8 56 56 S 12 19 30.03 1017 10 16 N/A
4:15 pm 16:15 Mostly Cloudy 90 32.1 71 21.9 55 55 SSW 14 22 30.03 1017 10 16 N/A
4:35 pm 16:35 Mostly Cloudy 87 30.7 70 21 56 56 SSW 10 17 30.03 1017 10 16 N/A
4:55 pm 16:55 Mostly Cloudy 85 29.5 69 20.6 59 59 SW 8 13 30.03 1017 10 16 N/A
5:15 pm 17:15 Partly Cloudy 87 30.7 70 21.2 57 57 S 5 7 30.03 1017 10 16 N/A
5:35 pm 17:35 Partly Cloudy 85 29.3 68 20 57 57 S 7 11 30.03 1017 10 16 N/A
5:55 pm 17:55 Partly Cloudy 84 28.9 67 19.6 57 57 S 7 11 30.03 1017 10 16 N/A
6:15 pm 18:15 Sunny 84 28.7 67 19.6 58 58 S 7 11 30.06 1018 10 16 N/A
6:35 pm 18:35 Partly Cloudy 83 28.6 68 19.8 59 59 S 6 9 30.00 1016 10 16 N/A
6:55 pm 18:55 Partly Cloudy 83 28.6 68 20 60 60 S 8 13 30.00 1016 10 16 N/A
7:15 pm 19:15 Partly Cloudy with Light Rain 83 28.5 68 20.1 60 60 S 10 17 30.00 1016 10 16 N/A
7:35 pm 19:35 Cloudy with Light Rain 81 27.2 69 20.8 68 68 S 7 11 30.03 1017 10 16 N/A
7:55 pm 19:55 Cloudy with Light Rain 80 26.5 71 21.5 74 74 S 6 9 30.03 1017 10 16 N/A
8:15 pm 20:15 Cloudy with Rain 80 26.5 71 21.8 75 75 SSW 5 7 30.03 1017 7 11 N/A
8:35 pm 20:35 Partly Cloudy with Light Rain 77 25.1 71 21.5 81 81 N N/A 30.03 1017 10 16 N/A
8:55 pm 20:55 Clear 77 25.1 71 21.6 81 81 N N/A 30.03 1017 10 16 N/A
9:15 pm 21:15 Hazy 77 25.1 72 22 83 83 N N/A 30.03 1017 5 8 N/A
9:35 pm 21:35 Hazy 74 23.6 70 21 85 85 N N/A 30.03 1017 4 6 N/A
9:55 pm 21:55 Hazy 74 23.6 70 21 85 85 N N/A 30.03 1017 3 5 N/A
10:15 pm 22:15 Hazy 74 23.6 70 21 85 85 SSW 6 9 30.03 1017 3 5 N/A
10:35 pm 22:35 Partly Cloudy 75 23.8 70 21.3 86 86 SW 5 7 30.03 1017 10 16 N/A
10:55 pm 22:55 Mostly Cloudy 77 25.1 72 22.4 85 85 S 5 7 30.03 1017 10 16 N/A
11:15 pm 23:15 Mostly Cloudy 77 25.1 71 21.7 81 81 SSW 6 9 30.03 1017 10 16 N/A
11:35 pm 23:35 Mostly Cloudy 77 25.1 71 21.6 81 81 SSW 6 9 30.03 1017 10 16 N/A
11:55 pm 23:55 Mostly Cloudy 77 25.2 71 21.6 81 81 SSW 8 13 30.03 1017 10 16 N/A

Powered by AerisWeather